This demonstration page uses our WeatherBlox Daily Observations layout. Learn more.

Left ArrowRight Arrow

Hourly Observations for May 2, 2018

Temp ( °F °C ) Dew Point ( °F °C ) Humidity (%) Winds ( mph kmh ) Pressure ( in mb ) Visibility ( mi km ) Precip ( " mm )
12:53 am 00:53 Cloudy 47 8.3 40 4.4 77 77 WSW 8 13 29.92 1013 10 16 N/A
1:53 am 01:53 Mostly Cloudy 45 7.2 38 3.3 77 77 WSW 3 6 29.93 1013 10 16 N/A
2:53 am 02:53 Clear 39 3.9 35 1.7 86 86 SW 10 17 29.93 1014 10 16 N/A
3:53 am 03:53 Clear 37 2.8 34 1.1 89 89 WSW 5 7 29.94 1014 10 16 N/A
4:53 am 04:53 Mostly Clear 37 2.8 34 1.1 89 89 SW 9 15 29.95 1014 10 16 N/A
5:53 am 05:53 Mostly Clear 34 1.1 33 0.6 97 97 WSW 8 13 29.95 1014 10 16 N/A
6:53 am 06:53 Cloudy 39 3.9 36 2.2 89 89 SW 9 15 29.96 1014 10 16 N/A
7:53 am 07:53 Cloudy 44 6.7 37 2.8 76 76 SW 13 20 29.96 1015 10 16 N/A
8:53 am 08:53 Cloudy 47 8.3 37 2.8 69 69 SW 15 24 29.96 1015 10 16 N/A
9:53 am 09:53 Cloudy 52 11.1 37 2.8 57 57 SW 16 26 29.94 1014 10 16 N/A
10:53 am 10:53 Sunny 57 13.9 37 2.8 47 47 SW 17 28 29.92 1013 10 16 N/A
11:53 am 11:53 Mostly Sunny 61 16.1 36 2.2 39 39 SW 16 26 29.89 1012 10 16 N/A
12:53 pm 12:53 Mostly Sunny 61 16.1 32 undefined 34 34 WSW 12 19 29.88 1012 10 16 N/A
1:53 pm 13:53 Partly Cloudy 64 17.8 31 -0.6 29 29 SW 14 22 29.85 1011 10 16 N/A
2:53 pm 14:53 Partly Cloudy 65 18.3 29 -1.7 26 26 WSW 14 22 29.85 1011 10 16 N/A
3:53 pm 15:53 Mostly Cloudy 66 18.9 29 -1.7 25 25 WSW 10 17 29.82 1010 10 16 N/A
4:53 pm 16:53 Mostly Cloudy 66 18.9 27 -2.8 23 23 WSW 16 26 29.81 1010 10 16 N/A
5:53 pm 17:53 Sunny 67 19.4 28 -2.2 23 23 W 12 19 29.80 1009 10 16 N/A
6:53 pm 18:53 Mostly Sunny 67 19.4 28 -2.2 23 23 WSW 15 24 29.78 1009 10 16 N/A
7:53 pm 19:53 Mostly Sunny 63 17.2 30 -1.1 29 29 SW 10 17 29.78 1008 10 16 N/A
8:53 pm 20:53 Clear 54 12.2 33 0.6 45 45 SW 8 13 29.80 1009 10 16 N/A
9:53 pm 21:53 Clear 54 12.2 32 undefined 43 43 SSW 13 20 29.80 1009 10 16 N/A
10:53 pm 22:53 Clear 53 11.7 32 undefined 45 45 N N/A 29.80 1009 10 16 N/A
11:53 pm 23:53 Clear 49 9.4 34 1.1 56 56 SW 8 13 29.82 1010 10 16 N/A

Powered by AerisWeather